Location: Commenchon
(49.6411°N, 3.1571°E)
Time: 21:29:06
(UTC+00:00)

RESURS DK-1 - Pass Details

Date: 15 May 2026
Orbit: 522 x 531 km, 69.9° (Epoch: 10 June)

Event Time Altitude Azimuth Distance (km) Brightness Sun altitude
Rises 23:51:18 0° 316° (NW) 2,682 6.5 -21.3°
Reaches altitude 10° 23:54:01 10° 297° (WNW) 1,787 5.2 -21.3°
Enters shadow 23:56:08 17° 265° (W) 1,391 4.3 -21.2°
